Location: Seasalter
(51.3333°N, 1.0167°E)
Time: 14:30:30
(UTC+00:00)

ATLAS 5 CENTAUR R/B - Pass Details

Date: 02 May 2024
Orbit: 421 x 1169 km, 63.3° (Epoch: 22 May)

Event Time Altitude Azimuth Distance (km) Brightness Sun altitude
Rises 00:58:30 0° 306° (NW) 3,033 5.3 -21.7°
Reaches altitude 10° 01:01:07 10° 290° (WNW) 2,243 4.4 -21.5°
Enters shadow 01:03:41 20° 261° (W) 1,778 3.6 -21.4°
